Regional Weather Roundup
Issued by NWS

Home | Current Version | Previous Version | Text Only | Print | Product List | Glossary On
Versions: 1 2 3 4 5 6 7 8 9 10 11 12 13 14 15 16 17 18 19 20 21 22 23 24 25 26 27 28 29 30 31 32 33 34 35 36 37 38 39 40 41 42 43 44 45 46 47 48 49 50
000
ASUS43 KMKX 300221
RWRWI

WISCONSIN REGIONAL WEATHER ROUNDUP
NATIONAL WEATHER SERVICE MILWAUKEE/SULLIVAN WI
900 PM CDT MON MAY 29 2017

NOTE: "FAIR" INDICATES FEW OR NO CLOUDS BELOW 12,000 FEET WITH NO
SIGNIFICANT WEATHER AND/OR OBSTRUCTIONS TO VISIBILITY.

WIZ001-002-006>008-014>016-023>028-300300-
NORTHWEST WISCONSIN

CITY           SKY/WX    TMP DP  RH WIND       PRES   REMARKS
SUPERIOR ARPT  NOT AVBL
ASHLAND        CLOUDY    55  45  68 W13       29.76R
HAYWARD        CLOUDY    55  45  68 VRB6      29.79R
SIREN          MOCLDY    54  44  70 CALM      29.81S
CUMBERLAND     PTCLDY    52  45  76 W9        29.82R
RICE LAKE      PTCLDY    54  46  75 W6        29.84R
CHETEK         CLOUDY    55  47  74 NW6       29.82R
LADYSMITH      CLOUDY    54  50  86 W7        29.81R
EAU CLAIRE     CLOUDY    58  45  62 W18       29.82R
MENOMONIE      MOCLDY    56  46  69 W8        29.85R
NEW RICHMOND   PTCLDY    52  44  73 W5        29.85R
OSCEOLA        MOCLDY    55  46  72 SW5       29.87R
$$

WIZ003>005-009-010-017-018-300300-
NORTH CENTRAL WISCONSIN

CITY           SKY/WX    TMP DP  RH WIND       PRES   REMARKS
MANITOWISH WTR CLOUDY    52  49  88 NW6       29.75R
ARBOR VITAE    CLOUDY    55  51  87 W6        29.75R
WOODRUFF       CLOUDY    55  51  87 W6        29.75R
RHINELANDER    CLOUDY    53  50  89 W10       29.77R
EAGLE RIVER    LGT RAIN  52  50  94 W8        29.74R
LAND O LAKES   LGT RAIN  51  49  91 W6        29.76R
PHILLIPS       CLOUDY    51  51  99 NW3       29.77R
TOMAHAWK       LGT RAIN  51  49  90 W6        29.78R
MEDFORD        MOCLDY    53  49  86 W9        29.79R
MERRILL        PTCLDY    53  51  95 W6        29.79R
$$

WIZ029-030-035-036-043>047-300300-
CENTRAL WISCONSIN

CITY           SKY/WX    TMP DP  RH WIND       PRES   REMARKS
WAUSAU         MOCLDY    52  49  89 W7        29.77S
MOSINEE        NOT AVBL
MARSHFIELD     PTCLDY    52  48  86 W7        29.80R
STEVENS POINT  CLOUDY    54  46  75 W6        29.81R
WAUPACA        MOCLDY    60  49  65 W5        29.81R
WAUTOMA        NOT AVBL
WISC RAPIDS    MOCLDY    55  46  71 W5        29.83R
CAMP DOUGLAS   PTCLDY    50  50  99 CALM      29.84R
$$

WIZ011>013-019>022-031-037>040-048>050-300300-
NORTHEAST WISCONSIN

CITY           SKY/WX    TMP DP  RH WIND       PRES   REMARKS
ANTIGO         MOCLDY    50  48  93 W6        29.78S
SHAWANO        LGT RAIN  55  50  81 W5        29.79R
OCONTO         CLOUDY    54  49  83 CALM      29.76R
STURGEON BAY   CLOUDY    56  49  77 SW3       29.76F
GREEN BAY      CLEAR     59  51  75 SW7       29.78R
MANITOWOC      PTCLDY    60  47  61 W7        29.80R
APPLETON       MOCLDY    57  46  67 SW10      29.79R
CLINTONVILLE   LGT RAIN  54  46  76 W6        29.80R
OSHKOSH        PTCLDY    58  45  62 VRB5      29.81R
$$

WIZ032>034-041-042-053>061-300300-
SOUTHWEST WISCONSIN

CITY           SKY/WX    TMP DP  RH WIND       PRES   REMARKS
LA CROSSE      CLOUDY    60  50  69 W9        29.85R
SPARTA         PTCLDY    56  49  77 CALM      29.85S
VIROQUA        MOCLDY    57  48  71 MISG      29.87R
BOSCOBEL       PTCLDY    63  45  51 W9        29.87R
PRAIRIE DU CHI MOCLDY    62  43  50 W10       29.88S
PLATTEVILLE    MOCLDY    63  47  55 W10       29.89R
$$

WIZ056-057-062-063-064-067-068-300300-
SOUTH CENTRAL WISCONSIN

CITY           SKY/WX    TMP DP  RH WIND       PRES   REMARKS
REEDSBURG      PTCLDY    55  52  89 W3        29.84S
BARABOO/DELLS  PTCLDY    54  49  82 SW3       29.85R
LONE ROCK      CLEAR     62  45  53 W10       29.86R
MINERAL POINT  PTCLDY    57  50  77 W7        29.88R
MADISON        MOCLDY    54  53  97 SW3       29.85R
MIDDLETON      PTCLDY    56  52  86 W3        29.86S
WATERTOWN      PTCLDY    54  53  95 SW5       29.85S
MONROE         CLEAR     61  45  55 NW6       29.87R
JANESVILLE     MOCLDY    63  46  55 N8        29.86R
$$

WIZ051-052-058>065-066-070>072-300300-
SOUTHEAST WISCONSIN

CITY           SKY/WX    TMP DP  RH WIND       PRES   REMARKS
MILWAUKEE      TSTM      61  53  75 W15G29    29.90R
WAUKESHA       MOCLDY    57  48  72 W17G31    29.90R
MILWAUKEE/TIMM MOCLDY    63  43  48 W6          N/A
RACINE         CLOUDY    62  46  55 W3        29.87R
KENOSHA        MOCLDY    60  47  61 W3        29.86R
FOND DU LAC    PTCLDY    58  46  64 SW5       29.82R
SHEBOYGAN      PTCLDY    58  49  72 SW8       29.81R
WEST BEND      PTCLDY    59  45  58 W6        29.83S
JUNEAU         MOCLDY    52  49  88 SW3       29.86R
$$

LSZ147-162-300300-
LAKE SUPERIOR

STATION/POSITION TIME  TEMP    WIND        PRES    WAVE
                       AIR SEA DIR/SP/G            HT/PER
                 (UTC) (F)     (DEG/KT/KT) (MB)    (FT/S)
W MID LAKE BUOY  0150   44 38  260/ 16/ 17 1005.1R   2/ 4
DEVILS ISLAND    0200   47     260/ 18/ 20 1006.9R
SAXON HARBOR     0140   57     270/ 10/ 16 1007.1R
$$

LMZ867-665-643>646-300300-
LAKE MICHIGAN

STATION/POSITION TIME  TEMP    WIND        PRES    WAVE
                       AIR SEA DIR/SP/G            HT/PER
                 (UTC) (F)     (DEG/KT/KT) (MB)    (FT/S)
CHAMBERS ISLAND  0140   56     200/  8/ 12 1006.8R
N MID LAKE BUOY  0150   47 41  230/ 12/ 14 1007.6R   2/ 4
NORTHPORT PIER   0140   60     210/  6/  9 1006.4S
KEWAUNEE LAKESHO 0154   61     250/  5/ 10 1008.0R
SHEBOYGAN LAKESH 0200   61     240/ 10/ 12 1009.2R
PORT WASHINGTON  0140   62     250/  6/ 10 1010.8S
ATWATER BUOY     0109   59     280/  8/  8 1010.6R
MILWAUKEE LAKESH 0200   64     290/  9/ 14   N/A
S MID LAKE BUOY  0150   53 48  310/  6/  8 1011.3R   1/ 4
KENOSHA   LAKESH 0200   66     360/  5/  7 1010.8
$$

TC  - TEMPERATURE IN CELSIUS
VSB - VISIBILITY IN STATUTE MILES
WCI - WIND CHILL INDEX
HX  - HEAT INDEX





USA.gov is the U.S. government's official web portal to all federal, state and local government web resources and services.